Multibeam Report for KM1302


Ship Name: Kilo Moana
Chief Scientist: Curless, Susan
University of Hawaii
Source Organization: UNOLS R2R
Start Date: 2013-02-11
End Date: 2013-02-15


View ISO Metadata

Visit the full NCEI Bathymetry Viewer


Multibeam Bathymetry

Cruise Details

Project: Hawaii Ocean Timeseries (HOT)
Instrument: Kongsberg EM710

Data Quality

Number of Files: 56
Number of Records: 58860
BATHYMETRY DATA Quantity Percentage
Number of Beams 24714944 100%
Number of Good Beams 22507486 91.07%
Number of Zero Beams 0 0%
Number of Flagged Beams 2207458 8.93%

Navigation Totals

Total Time: 45.0303 hours
Total Track Length: 579.6231 km
Average Speed: 12.872 km/hr (6.9503 knots)

Cruise Bounds

Northern Extent: 22.949097
Southern Extent: 21.24574
Western Extent: -158.36339
Eastern Extent: -157.89119

Limits

Minimum Sonar Depth 5.5864 Maximum Sonar Depth 9.6646
Minimum Altitude 72.6077 Maximum Altitude 4891.1431
Minimum Depth 71.8598 Maximum Depth 5246.0957

File Information

Full Resolution Bathymetry as collected (raw): 53

Files File Size Description
0000_20130211_201802_KM122.all.mb58.gz 118.12MB Kongsberg multibeam vendor format
0001_20130211_211803_KM122.all.mb58.gz 86.91MB Kongsberg multibeam vendor format
0002_20130211_221806_KM122.all.mb58.gz 85.65MB Kongsberg multibeam vendor format
0003_20130211_231810_KM122.all.mb58.gz 88.23MB Kongsberg multibeam vendor format
0004_20130212_001811_KM122.all.mb58.gz 90.48MB Kongsberg multibeam vendor format
0005_20130212_011806_KM122.all.mb58.gz 130.82MB Kongsberg multibeam vendor format
0006_20130212_021801_KM122.all.mb58.gz 171.16MB Kongsberg multibeam vendor format
0007_20130212_031805_KM122.all.mb58.gz 82.10MB Kongsberg multibeam vendor format
0008_20130212_041802_KM122.all.mb58.gz 71.26MB Kongsberg multibeam vendor format
0009_20130212_051816_KM122.all.mb58.gz 70.23MB Kongsberg multibeam vendor format
0010_20130212_061805_KM122.all.mb58.gz 70.55MB Kongsberg multibeam vendor format
0011_20130212_071807_KM122.all.mb58.gz 70.41MB Kongsberg multibeam vendor format
0012_20130212_081805_KM122.all.mb58.gz 69.87MB Kongsberg multibeam vendor format
0013_20130212_091808_KM122.all.mb58.gz 29.76MB Kongsberg multibeam vendor format
0014_20130214_152326_KM122.all.mb58.gz 69.94MB Kongsberg multibeam vendor format
0015_20130214_162331_KM122.all.mb58.gz 69.67MB Kongsberg multibeam vendor format
0016_20130214_172335_KM122.all.mb58.gz 68.53MB Kongsberg multibeam vendor format
0017_20130214_182321_KM122.all.mb58.gz 70.88MB Kongsberg multibeam vendor format
0018_20130214_192333_KM122.all.mb58.gz 69.71MB Kongsberg multibeam vendor format
0019_20130214_202330_KM122.all.mb58.gz 69.46MB Kongsberg multibeam vendor format
0020_20130214_212326_KM122.all.mb58.gz 69.60MB Kongsberg multibeam vendor format
0021_20130214_222326_KM122.all.mb58.gz 69.81MB Kongsberg multibeam vendor format
0022_20130214_232335_KM122.all.mb58.gz 69.45MB Kongsberg multibeam vendor format
0023_20130215_002329_KM122.all.mb58.gz 69.81MB Kongsberg multibeam vendor format
0024_20130215_012328_KM122.all.mb58.gz 70.72MB Kongsberg multibeam vendor format
0025_20130215_022331_KM122.all.mb58.gz 70.36MB Kongsberg multibeam vendor format
0026_20130215_032320_KM122.all.mb58.gz 70.66MB Kongsberg multibeam vendor format
0027_20130215_042325_KM122.all.mb58.gz 71.06MB Kongsberg multibeam vendor format
0028_20130215_052337_KM122.all.mb58.gz 70.57MB Kongsberg multibeam vendor format
0029_20130215_062320_KM122.all.mb58.gz 77.10MB Kongsberg multibeam vendor format
0030_20130215_072326_KM122.all.mb58.gz 77.73MB Kongsberg multibeam vendor format
0031_20130215_082321_KM122.all.mb58.gz 80.26MB Kongsberg multibeam vendor format
0032_20130215_092328_KM122.all.mb58.gz 112.99MB Kongsberg multibeam vendor format
0033_20130215_102322_KM122.all.mb58.gz 176.70MB Kongsberg multibeam vendor format
0034_20130215_112325_KM122.all.mb58.gz 89.78MB Kongsberg multibeam vendor format
0035_20130215_122324_KM122.all.mb58.gz 103.47MB Kongsberg multibeam vendor format
0036_20130215_132326_KM122.all.mb58.gz 140.54MB Kongsberg multibeam vendor format
0037_20130215_142320_KM122.all.mb58.gz 150.80MB Kongsberg multibeam vendor format
0038_20130215_152321_KM122.all.mb58.gz 83.17MB Kongsberg multibeam vendor format
9999.all.mb58.gz 45.82MB Kongsberg multibeam vendor format
0000_20130211_201754_KM710.all.mb58.gz 113.04MB Kongsberg multibeam vendor format
0001_20130211_211756_KM710.all.mb58.gz 57.41MB Kongsberg multibeam vendor format
0002_20130211_221757_KM710.all.mb58.gz 57.28MB Kongsberg multibeam vendor format
0003_20130211_231755_KM710.all.mb58.gz 57.30MB Kongsberg multibeam vendor format
0004_20130212_001754_KM710.all.mb58.gz 57.45MB Kongsberg multibeam vendor format
0005_20130212_011754_KM710.all.mb58.gz 136.29MB Kongsberg multibeam vendor format
0006_20130212_021754_KM710.all.mb58.gz 217.51MB Kongsberg multibeam vendor format
0007_20130212_031754_KM710.all.mb58.gz 20.86MB Kongsberg multibeam vendor format
0009_20130215_135719_KM710.all.mb58.gz 243.23MB Kongsberg multibeam vendor format
0010_20130215_145719_KM710.all.mb58.gz 203.48MB Kongsberg multibeam vendor format
0011_20130215_155719_KM710.all.mb58.gz 4.48MB Kongsberg multibeam vendor format
9999.all.mb58.gz 112.47MB Kongsberg multibeam vendor format
9999_130215090901_tmp.all.mb58.gz 3.2KB Kongsberg multibeam vendor format

Metadata Files: 3

Files File Size Description
KM1302_Multibeam.xml NGDC created ISO metadata
em122_bag_info.tar.gz 3.5KB Additional cruise information
em710_bag_info.tar.gz 1.5KB Additional cruise information